Lee's Summit, MO

11:04 AM CDT on September 24, 2017 (GMT -0500)
Lee's Summit Municipal

Weather History for KLXT - April, 2014

Change the Weather History Date:

Saturday, April 5, 2014

  Actual Average (KMKC) Record (KMKC)
Temperature  
Mean Temperature 42 °F -  
Max Temperature 55 °F 60 °F 80 °F (2001)
Min Temperature 30 °F 41 °F 28 °F (2007)
Degree Days  
Heating Degree Days 22    
Moisture  
Dew Point 29 °F    
Average Humidity 55    
Maximum Humidity 88    
Minimum Humidity 37    
Precipitation  
Precipitation 0.00 in - - ()
Sea Level Pressure  
Sea Level Pressure 30.15 in    
Wind  
Wind Speed 5 mph (SE)    
Max Wind Speed 9 mph    
Max Gust Speed -    
Visibility 10 miles    
Events      
Averages and records for this station are not official NWS values.
T = Trace of Precipitation, MM = Missing Value Source: NWS Daily Summary

Daily Weather History Graph

Daily Weather History Graph

Search for Another Location

Airport or City:

Trip Planner

Search our weather history database for the weather conditions in past years. The results will help you decide how hot, cold, wet, or windy it might be!

Date:

Astronomy

Apr. 05, 2014 Rise Set
Actual Time 6:55 AM CDT 7:45 PM CDT
Civil Twilight 6:28 AM CDT 8:12 PM CDT
Nautical Twilight 5:56 AM CDT 8:44 PM CDT
Astronomical Twilight 5:23 AM CDT 9:17 PM CDT
Moon 11:06 AM CDT (4/5) 12:53 AM CDT (4/5)
Length of Visible Light 13h 43m
Length of Day
12h 49m
Waxing Crescent, 34% of the Moon is Illuminated
Apr 5
Waxing Crescent
Apr 7
First Quarter
Apr 15
Full
Apr 22
Last Quarter
Apr 29
New

Hourly Weather History & Observations

Time (CDT) Temp. Windchill Dew Point Humidity Pressure Visibility Wind Dir Wind Speed Gust Speed Precip Events Conditions
12:53 AM 39.0 °F 36.8 °F 26.1 °F 60% 30.19 in 10.0 mi NNE 3.5 mph - N/A   Clear
1:53 AM 35.1 °F - 25.0 °F 67% 30.20 in 10.0 mi Calm Calm - N/A   Clear
2:53 AM 34.0 °F - 26.1 °F 73% 30.20 in 10.0 mi Calm Calm - N/A   Clear
3:53 AM 36.0 °F 31.1 °F 26.1 °F 67% 30.19 in 10.0 mi ESE 5.8 mph - N/A   Clear
4:53 AM 33.1 °F 26.9 °F 25.0 °F 72% 30.18 in 10.0 mi East 6.9 mph - N/A   Clear
5:53 AM 32.0 °F 25.6 °F 26.1 °F 79% 30.18 in 10.0 mi SE 6.9 mph - N/A   Clear
7:53 AM 30.0 °F 26.5 °F 27.0 °F 88% 30.22 in 9.0 mi SW 3.5 mph - N/A   Clear
8:53 AM 39.9 °F 34.5 °F 28.9 °F 65% 30.23 in 10.0 mi South 8.1 mph - N/A   Clear
9:53 AM 42.1 °F 38.4 °F 28.9 °F 60% 30.23 in 10.0 mi Variable 5.8 mph - N/A   Clear
10:53 AM 46.0 °F 43.1 °F 30.0 °F 54% 30.22 in 10.0 mi ESE 5.8 mph - N/A   Clear
11:53 AM 48.0 °F - 30.0 °F 50% 30.21 in 10.0 mi ESE 8.1 mph - N/A   Clear
12:53 PM 51.1 °F - 30.9 °F 46% 30.19 in 10.0 mi SSE 9.2 mph - N/A   Clear
1:53 PM 52.0 °F - 30.0 °F 43% 30.16 in 10.0 mi Variable 3.5 mph - N/A   Clear
2:53 PM 54.0 °F - 30.0 °F 40% 30.14 in 10.0 mi South 8.1 mph - N/A   Clear
3:53 PM 55.0 °F - 30.0 °F 38% 30.11 in 10.0 mi East 4.6 mph - N/A   Clear
4:53 PM 55.9 °F - 30.0 °F 37% 30.09 in 10.0 mi SE 8.1 mph - N/A   Clear
5:53 PM 55.9 °F - 30.0 °F 37% 30.08 in 10.0 mi North - - N/A   Clear
6:53 PM 53.1 °F - 30.0 °F 41% 30.08 in 10.0 mi SE 6.9 mph - N/A   Clear
7:53 PM 51.1 °F - 30.0 °F 44% 30.07 in 10.0 mi SE 6.9 mph - N/A   Clear
8:53 PM 48.9 °F - 28.9 °F 46% 30.07 in 10.0 mi SE 5.8 mph - N/A   Clear
9:53 PM 48.0 °F - 28.0 °F 46% 30.08 in 10.0 mi ESE 4.6 mph - N/A   Clear
10:53 PM 46.9 °F - 28.9 °F 50% 30.07 in 10.0 mi ESE 6.9 mph - N/A   Clear
11:53 PM 46.9 °F - 30.9 °F 54% 30.06 in 10.0 mi ESE 5.8 mph - N/A   Clear